Change the Weather History Date:

Tuesday, June 17, 2014

  Actual Average Record
Temperature  
Mean Temperature 63 °F 61 °F  
Max Temperature 72 °F 72 °F 90 °F (1948)
Min Temperature 54 °F 50 °F 37 °F (1954)
Degree Days  
Heating Degree Days 2 4  
Month to date heating degree days 114 114  
Since 1 June heating degree days 114 114  
Since 1 July heating degree days 12423 13623  
Cooling Degree Days 0 1  
Month to date cooling degree days 0 4  
Year to date cooling degree days 0 5  
Since 1 June cooling degree days 0 4  
Growing Degree Days 13 (Base 50)    
Moisture  
Dew Point 43 °F    
Average Humidity 52    
Maximum Humidity 80    
Minimum Humidity 16    
Precipitation  
Precipitation 0.04 in 0.05 in 0.58 in (1919)
Month to date precipitation 0.32 0.67  
Year to date precipitation 1.41 2.83  
Snow  
Snow 0.00 in 0.00 in 0.00 in (2002)
Month to date snowfall 0.0 0.0  
Since 1 June snowfall 0.0 0.0  
Since 1 July snowfall 48.9 65.0  
Snow Depth 0.00 in    
Sea Level Pressure  
Sea Level Pressure 29.35 in    
Wind  
Wind Speed 4 mph (ENE)    
Max Wind Speed 12 mph    
Max Gust Speed 21 mph    
Visibility 10 miles    
Events Rain    
T = Trace of Precipitation, MM = Missing Value Source: NWS Daily Summary

Daily Weather History Graph

Daily Weather History Graph

Search for Another Location

Airport or City:

Trip Planner

Search our weather history database for the weather conditions in past years. The results will help you decide how hot, cold, wet, or windy it might be!

Date:

Astronomy

Jun. 17, 2014 Rise Set
Actual Time 3:00 AM AKDT 12:45 AM AKDT
Civil Twilight Sun does not rise Sun does not rise
Nautical Twilight Sun does not rise Sun does not rise
Astronomical Twilight Sun does not rise Sun does not rise
Moon 1:11 AM AKDT (6/17) 11:06 AM AKDT (6/17)
Length of Visible Light 24h 00m
Length of Day
21h 44m
Waning Gibbous, 72% of the Moon is Illuminated
Jun 17
Waning Gibbous
Jun 19
Last Quarter
Jun 27
New
Jul 5
First Quarter
Jul 12
Full

Hourly Weather History & Observations

Time (AKDT) Temp. Dew Point Humidity Pressure Visibility Wind Dir Wind Speed Gust Speed Precip Events Conditions
12:53 AM 57.9 °F 46.9 °F 67% 29.42 in 10.0 mi NNW 3.5 mph - N/A   Mostly Cloudy
1:53 AM 57.0 °F 46.9 °F 69% 29.41 in 10.0 mi North 4.6 mph - N/A   Mostly Cloudy
2:53 AM 55.9 °F 46.9 °F 72% 29.39 in 10.0 mi NNE 4.6 mph - N/A   Mostly Cloudy
3:53 AM 55.0 °F 46.9 °F 74% 29.37 in 10.0 mi Calm Calm - N/A   Mostly Cloudy
4:53 AM 54.0 °F 46.9 °F 77% 29.36 in 10.0 mi Calm Calm - N/A   Mostly Cloudy
5:53 AM 54.0 °F 46.9 °F 77% 29.36 in 10.0 mi Calm Calm - N/A   Mostly Cloudy
6:53 AM 54.0 °F 48.0 °F 80% 29.34 in 10.0 mi NNE 8.1 mph - 0.01 in Rain Light Rain
7:53 AM 55.0 °F 46.9 °F 74% 29.34 in 10.0 mi NNE 4.6 mph - 0.00 in   Mostly Cloudy
8:53 AM 59.0 °F 46.9 °F 64% 29.34 in 10.0 mi Calm Calm - N/A   Mostly Cloudy
9:53 AM 60.1 °F 45.0 °F 57% 29.33 in 10.0 mi NE 4.6 mph - N/A   Mostly Cloudy
10:53 AM 62.1 °F 42.1 °F 48% 29.33 in 10.0 mi ESE 4.6 mph - N/A   Mostly Cloudy
11:53 AM 63.0 °F 43.0 °F 48% 29.33 in 10.0 mi Variable 3.5 mph - N/A   Mostly Cloudy
12:53 PM 66.9 °F 44.1 °F 44% 29.32 in 10.0 mi North 5.8 mph - N/A   Mostly Cloudy
1:53 PM 66.0 °F 43.0 °F 43% 29.33 in 10.0 mi East 3.5 mph - N/A   Mostly Cloudy
2:53 PM 70.0 °F 39.9 °F 33% 29.31 in 10.0 mi East 8.1 mph - N/A   Mostly Cloudy
3:53 PM 70.0 °F 34.0 °F 27% 29.31 in 10.0 mi Calm Calm - N/A   Mostly Cloudy
4:53 PM 70.0 °F 37.9 °F 31% 29.31 in 10.0 mi East 8.1 mph - N/A   Mostly Cloudy
5:53 PM 68.0 °F 36.0 °F 31% 29.31 in 10.0 mi East 6.9 mph - N/A   Mostly Cloudy
6:53 PM 64.9 °F 37.0 °F 36% 29.31 in 10.0 mi SE 11.5 mph 20.7 mph N/A   Overcast
7:53 PM 63.0 °F 37.9 °F 40% 29.34 in 10.0 mi SSE 5.8 mph - N/A   Overcast
8:53 PM 62.1 °F 39.0 °F 43% 29.35 in 10.0 mi Calm Calm - 0.00 in Rain Light Rain
9:53 PM 61.0 °F 39.0 °F 44% 29.35 in 10.0 mi South 5.8 mph - 0.00 in   Overcast
10:53 PM 59.0 °F 42.1 °F 53% 29.37 in 10.0 mi ESE 3.5 mph - 0.00 in   Overcast
11:53 PM 57.0 °F 46.0 °F 67% 29.37 in 10.0 mi South 4.6 mph - 0.00 in Rain Light Rain